Weather History for Pecos, TX

Change the Weather History Date:

Monday, September 3, 2012

  Actual Average Record
Temperature  
Mean Temperature 86 °F -  
Max Temperature 103 °F 94 °F 105 °F (1959)
Min Temperature 69 °F 65 °F 48 °F (1934)
Cooling Degree Days 20    
Growing Degree Days 36 (Base 50)    
Moisture  
Dew Point 56 °F    
Average Humidity 40    
Maximum Humidity 71    
Minimum Humidity 15    
Precipitation  
Precipitation 0.00 in - - ()
Sea Level Pressure  
Sea Level Pressure 29.95 in    
Wind  
Wind Speed 6 mph (ESE)    
Max Wind Speed 15 mph    
Max Gust Speed 22 mph    
Visibility 10 miles    
Events Thunderstorm    
Averages and records for this station are not official NWS values.
T = Trace of Precipitation, MM = Missing Value Source: NWS Daily Summary

Daily Weather History Graph

Daily Weather History Graph

Search for Another Location

Airport:

Trip Planner

Search our weather history database for the weather conditions in past years. The results will help you decide how hot, cold, wet, or windy it might be!

Date:

Astronomy

Sep. 03, 2012 Rise Set
Actual Time 7:31 AM CDT 8:14 PM CDT
Civil Twilight 7:06 AM CDT 8:39 PM CDT
Nautical Twilight 6:37 AM CDT 9:08 PM CDT
Astronomical Twilight 6:08 AM CDT 9:37 PM CDT
Moon 9:53 PM CDT (9/3) 10:25 AM CDT (9/3)
Length of Visible Light 13h 32m
Length of Day
12h 43m
Waning Gibbous, 90% of the Moon is Illuminated
Sep 3
Waning Gibbous
Sep 8
Last Quarter
Sep 15
New
Sep 22
First Quarter
Sep 29
Full

Hourly Weather History & Observations

Time (CDT) Temp. Heat Index Dew Point Humidity Pressure Visibility Wind Dir Wind Speed Gust Speed Precip Events Conditions
12:15 AM 82.9 °F 82.8 °F 59.0 °F 44% 29.97 in 10.0 mi SE 11.5 mph - N/A   Clear
12:35 AM 82.6 °F 82.6 °F 59.2 °F 45% 29.96 in 10.0 mi SE 10.4 mph - N/A   Clear
12:55 AM 81.7 °F 81.9 °F 59.2 °F 46% 29.96 in 10.0 mi SE 10.4 mph - N/A   Clear
1:15 AM 80.6 °F 81.1 °F 59.2 °F 48% 29.96 in 10.0 mi ESE 8.1 mph - N/A   Clear
1:35 AM 79.7 °F - 59.4 °F 50% 29.96 in 10.0 mi East 6.9 mph - N/A   Clear
1:55 AM 77.9 °F - 59.5 °F 53% 29.96 in 10.0 mi East 6.9 mph - N/A   Clear
2:15 AM 77.9 °F - 59.9 °F 54% 29.95 in 10.0 mi East 8.1 mph - N/A   Clear
2:35 AM 77.4 °F - 60.1 °F 55% 29.95 in 10.0 mi East 8.1 mph - N/A   Clear
2:55 AM 77.4 °F - 60.3 °F 55% 29.95 in 10.0 mi East 8.1 mph - N/A   Clear
3:15 AM 77.0 °F - 60.3 °F 56% 29.95 in 10.0 mi East 6.9 mph - N/A   Clear
3:35 AM 76.1 °F - 60.8 °F 59% 29.95 in 10.0 mi East 6.9 mph - N/A   Clear
3:55 AM 76.1 °F - 60.6 °F 59% 29.95 in 10.0 mi East 5.8 mph - N/A   Clear
4:15 AM 75.2 °F - 60.8 °F 61% 29.95 in 10.0 mi East 5.8 mph - N/A   Clear
4:35 AM 74.3 °F - 60.8 °F 63% 29.95 in 10.0 mi East 4.6 mph - N/A   Clear
4:55 AM 73.9 °F - 60.8 °F 63% 29.95 in 10.0 mi East 3.5 mph - N/A   Clear
5:15 AM 73.9 °F - 60.8 °F 63% 29.95 in 10.0 mi ENE 3.5 mph - N/A   Clear
5:35 AM 72.9 °F - 60.6 °F 65% 29.95 in 10.0 mi East 5.8 mph - N/A   Clear
5:55 AM 72.0 °F - 60.4 °F 67% 29.96 in 10.0 mi East 4.6 mph - N/A   Clear
6:15 AM 71.6 °F - 60.6 °F 68% 29.96 in 10.0 mi Calm Calm - N/A   Clear
6:35 AM 71.6 °F - 60.4 °F 68% 29.97 in 10.0 mi Calm Calm - N/A   Clear
6:55 AM 70.3 °F - 60.1 °F 70% 29.97 in 10.0 mi Calm Calm - N/A   Clear
7:15 AM 70.2 °F - 60.3 °F 71% 29.98 in 10.0 mi Calm Calm - N/A   Clear
7:35 AM 69.8 °F - 60.1 °F 71% 29.98 in 10.0 mi West 3.5 mph - N/A   Clear
7:55 AM 70.0 °F - 60.3 °F 71% 29.99 in 10.0 mi NW 4.6 mph - N/A   Clear
8:15 AM 71.6 °F - 60.8 °F 69% 29.99 in 10.0 mi NNW 3.5 mph - N/A   Clear
8:35 AM 73.9 °F - 60.8 °F 63% 30.00 in 10.0 mi NW 3.5 mph - N/A   Clear
8:55 AM 76.1 °F - 60.6 °F 59% 30.00 in 10.0 mi Calm Calm - N/A   Clear
9:15 AM 77.5 °F - 60.8 °F 56% 30.00 in 10.0 mi Calm Calm - N/A   Clear
9:35 AM 79.0 °F - 60.3 °F 53% 30.00 in 10.0 mi Calm Calm - N/A   Clear
9:55 AM 80.8 °F 81.6 °F 61.0 °F 51% 30.00 in 10.0 mi Calm Calm - N/A   Clear
10:15 AM 83.3 °F 83.5 °F 60.8 °F 46% 30.00 in 10.0 mi Calm Calm - N/A   Clear
10:35 AM 84.2 °F 84.2 °F 60.3 °F 44% 30.01 in 10.0 mi Calm Calm - N/A   Clear
10:55 AM 86.2 °F 85.9 °F 60.3 °F 41% 30.02 in 10.0 mi Calm Calm - N/A   Clear
11:15 AM 88.0 °F 87.1 °F 59.0 °F 37% 30.02 in 10.0 mi Calm Calm - N/A   Clear
11:35 AM 90.3 °F 88.8 °F 57.0 °F 32% 30.00 in 10.0 mi Calm Calm - N/A   Clear
11:55 AM 92.3 °F 90.5 °F 55.6 °F 29% 30.00 in 10.0 mi East 5.8 mph - N/A   Clear
12:15 PM 93.2 °F 91.3 °F 55.4 °F 28% 30.00 in 10.0 mi SE 6.9 mph - N/A   Clear
12:35 PM 95.0 °F 93.0 °F 55.0 °F 26% 29.99 in 10.0 mi ESE 5.8 mph - N/A   Clear
12:55 PM 95.9 °F 93.9 °F 55.0 °F 25% 29.99 in 10.0 mi SE 3.5 mph - N/A   Clear
1:15 PM 96.1 °F 94.1 °F 54.5 °F 25% 29.98 in 10.0 mi NW 3.5 mph - N/A   Clear
1:35 PM 97.0 °F 95.0 °F 54.3 °F 24% 29.97 in 10.0 mi South 4.6 mph - N/A   Clear
1:55 PM 98.1 °F 95.7 °F 53.2 °F 22% 29.97 in 10.0 mi NNW 4.6 mph - N/A Thunderstorm Clear
2:15 PM 98.6 °F - 52.2 °F 21% 29.96 in 10.0 mi NNE 3.5 mph - N/A   Clear
2:35 PM 99.9 °F - 51.4 °F 20% 29.95 in 10.0 mi Calm Calm - N/A   Clear
2:55 PM 100.4 °F - 49.5 °F 18% 29.94 in 10.0 mi South 10.4 mph - N/A   Clear
3:15 PM 100.8 °F - 47.5 °F 16% 29.93 in 10.0 mi WNW 3.5 mph - N/A   Clear
3:35 PM 102.2 °F - 48.0 °F 16% 29.91 in 10.0 mi East 4.6 mph - N/A   Scattered Clouds
3:55 PM 102.2 °F - 47.5 °F 16% 29.90 in 10.0 mi South 5.8 mph - N/A   Scattered Clouds
4:15 PM 99.9 °F - 46.6 °F 16% 29.89 in 10.0 mi WNW 4.6 mph - N/A   Clear
4:35 PM 102.0 °F - 47.3 °F 16% 29.89 in 10.0 mi NNE 3.5 mph - N/A   Clear
4:55 PM 102.4 °F - 46.9 °F 15% 29.88 in 10.0 mi ESE 5.8 mph - N/A   Scattered Clouds
5:15 PM 102.4 °F - 46.8 °F 15% 29.88 in 10.0 mi ENE 5.8 mph - N/A   Scattered Clouds
5:35 PM 102.9 °F - 46.9 °F 15% 29.88 in 10.0 mi SE 8.1 mph - N/A   Scattered Clouds
5:55 PM 101.8 °F - 48.0 °F 16% 29.88 in 10.0 mi SSW 11.5 mph - N/A   Scattered Clouds
6:15 PM 101.5 °F - 47.8 °F 16% 29.87 in 10.0 mi South 8.1 mph - N/A   Clear
6:35 PM 100.6 °F - 47.7 °F 17% 29.86 in 10.0 mi Calm Calm - N/A   Clear
6:55 PM 100.2 °F - 46.9 °F 16% 29.88 in 10.0 mi Calm Calm - N/A   Clear
7:15 PM 98.1 °F - 50.0 °F 20% 29.88 in 10.0 mi ESE 15.0 mph 21.9 mph N/A   Clear
7:35 PM 95.9 °F - 52.2 °F 23% 29.88 in 10.0 mi SE 11.5 mph - N/A   Clear
7:55 PM 94.5 °F - 52.7 °F 24% 29.88 in 10.0 mi SE 11.5 mph - N/A   Clear
8:15 PM 93.4 °F - 52.7 °F 25% 29.88 in 10.0 mi SE 9.2 mph - N/A   Clear
8:35 PM 92.3 °F - 52.3 °F 26% 29.88 in 10.0 mi South 15.0 mph 19.6 mph N/A   Clear
8:55 PM 91.2 °F - 51.4 °F 26% 29.89 in 10.0 mi South 8.1 mph - N/A   Clear
9:15 PM 89.4 °F - 51.3 °F 27% 29.90 in 10.0 mi SSE 6.9 mph - N/A   Clear
9:35 PM 88.2 °F - 52.0 °F 29% 29.91 in 10.0 mi SSE 5.8 mph - N/A   Clear
9:55 PM 86.0 °F - 52.3 °F 31% 29.91 in 10.0 mi SE 6.9 mph - N/A   Clear
10:15 PM 84.0 °F - 52.9 °F 34% 29.92 in 10.0 mi SE 8.1 mph - N/A   Clear
10:35 PM 83.1 °F 81.8 °F 53.1 °F 35% 29.92 in 10.0 mi SE 6.9 mph - N/A   Clear
10:55 PM 83.8 °F 82.4 °F 53.2 °F 35% 29.93 in 10.0 mi SE 5.8 mph - N/A   Clear
11:15 PM 82.9 °F 81.8 °F 53.8 °F 36% 29.93 in 10.0 mi ESE 4.6 mph - N/A   Clear
11:35 PM 81.9 °F 81.1 °F 54.0 °F 38% 29.93 in 10.0 mi ESE 8.1 mph - N/A   Clear
11:55 PM 80.6 °F 80.4 °F 54.1 °F 40% 29.94 in 10.0 mi ESE 6.9 mph - N/A   Clear